IT-SPINS (49017 NORAD) Tracking and Keplerian Element Data

This shows tracking and keplerian element data for the satellite.

Feedback or suggestion? Click here.




ElementValue
Catalog49017
NameIT-SPINS
Epoch Orbit458
Epoch Day210.85051926
Epoch Year2021
RAAN137.4732
Inclination51.6368
Eccentricity0.0007125
Argument of Perigee344.6842
Mean Anonmoly15.3919
Mean Motion15.2287142
Decay Rate1.618E-05
L11 49017U 21013G 21210.85051926 .00001618 00000-0 82237-4 0 9992
L22 49017 51.6368 137.4732 0007125 344.6842 15.3919 15.22871420 4582

Live tracking and technical data element details for IT-SPINS (NORAD 49017). IT-SPINS can be tracked NOW for your location showing map with azimuth and elevation plus other details from your city location.

Track the satellite on the map from your city or location and see movement details for azimuth, elevation, latitude, longitude, range, height, and movement on the map or in text.







IsCatalogInMostPopularTable: catalog: 49017, numindb: 2
Update: records affected: 1



GetName: 49017 IT-SPINS

Hit Count: updated at: Sat, 31 Jul 2021 15:58:32 GMT